Location: Risskov
(56.1972°N, 10.2480°E)
Time: 23:54:52
(UTC+00:00)

Cosmos 1408 Rocket - Pass Details

Date: 05 July 2020
Orbit: 601 x 631 km, 82.6° (Epoch: 14 August)

Event Time Altitude Azimuth Distance (km) Brightness Sun altitude
Exits shadow 23:35:55 15° 200° (SSW) 1,690 5.2 -11.1°
Maximum altitude 23:39:34 72° 284° (WNW) 657 3.7 -11.1°
Drops below altitude 10° 23:44:01 10° 9° (N) 2,009 7.8 -11.0°
Sets 23:46:17 0° 12° (NNE) 2,925 9.2 -11.0°
